Location: Unspecified
(0.0000°N, 0.0000°E)
Time: 16:49:35
(UTC+00:00)

SKYMED 2 - Visible Passes

Search period start: 23 May 2017 00:00
Search period end: 02 June 2017 00:00
Orbit: 621 x 623 km, 97.9° (Epoch: 22 May)

Date Brightness Start Highest point End Pass type
(mag) Time Alt. Az. Time Alt. Az. Time Alt. Az.
23 May 4.6 05:24:52 10° SSE 05:29:06 51° ENE 05:33:17 10° N visible
26 May 6.9 04:45:07 10° ESE 04:47:09 13° ENE 04:49:11 10° NE visible
26 May 6.7 18:28:56 10° NNW 18:31:58 19° WNW 18:35:02 10° WSW visible
27 May 6.3 05:01:40 10° SE 05:05:08 23° ENE 05:08:35 10° NNE visible
27 May 7.4 18:49:20 10° WNW 18:49:57 10° WNW 18:50:35 10° W visible
28 May 5.1 05:19:02 10° SSE 05:23:08 42° ENE 05:27:12 10° N visible
31 May 7.2 04:40:16 10° E 04:41:14 11° ENE 04:42:11 10° ENE visible
31 May 6.5 18:22:39 10° NNW 18:26:03 23° WNW 18:29:28 10° SW visible
01 Jun 6.6 04:56:06 10° SE 04:59:13 19° ENE 05:02:19 10° NNE visible
01 Jun 7.0 18:42:08 10° NW 18:44:02 13° WNW 18:45:57 10° WSW visible
